Location: La Brionne
(46.1728°N, 1.7849°E)
Time: 18:31:49
(UTC+00:00)

USA 215 - Pass Details

Date: 26 October 2021
Orbit: 1099 x 1109 km, 123.0° (Epoch: 20 November)

Event Time Altitude Azimuth Distance (km) Brightness Sun altitude
Exits shadow 21:14:25 25° 324° (NW) 2,050 5.0 -45.1°
Drops below altitude 10° 21:17:29 10° 303° (WNW) 2,965 6.1 -45.5°
Sets 21:20:11 0° 295° (WNW) 3,924 6.9 -45.9°
